Location: Hartford
(41.7640°N, 72.6860°W)
Time: 09:21:00
(UTC-05:00)

ISS - All Passes

Search period start: 29 January 2015 00:00
Search period end: 08 February 2015 00:00
Orbit: 402 x 410 km, 51.6° (Epoch: 28 January)

Date Brightness Start Highest point End Pass type
(mag) Time Alt. Az. Time Alt. Az. Time Alt. Az.
29 Jan - 00:38:49 10° NW 00:40:54 15° N 00:42:57 10° NNE night (unlit)
29 Jan - 02:15:53 10° NNW 02:18:20 19° NNE 02:20:48 10° ENE night (unlit)
29 Jan - 03:52:00 10° NW 03:55:19 70° NE 03:58:36 10° ESE visible
29 Jan - 05:29:39 10° W 05:31:29 14° SW 05:33:13 10° SSW visible
29 Jan - 20:33:10 10° S 20:35:27 18° SE 20:37:48 10° E night (unlit)
29 Jan - 22:08:29 10° WSW 22:11:43 54° NNW 22:14:58 10° NE night (unlit)
29 Jan - 23:46:28 10° WNW 23:48:47 17° NNW 23:51:05 10° NNE night (unlit)
30 Jan - 01:24:04 10° NNW 01:26:14 16° N 01:28:24 10° NE night (unlit)
30 Jan - 03:00:14 10° NW 03:03:24 41° NNE 03:06:33 10° E night (unlit)
30 Jan - 04:37:00 10° WNW 04:39:48 25° SW 04:42:34 10° SSE visible
30 Jan - 21:16:34 10° SW 21:19:51 83° SE 21:23:08 10° NE night (unlit)
30 Jan - 22:54:04 10° WNW 22:56:41 21° NNW 22:59:18 10° NE night (unlit)
31 Jan - 00:32:06 10° NW 00:34:05 15° N 00:36:04 10° NE night (unlit)
31 Jan - 02:08:30 10° NW 02:11:24 27° NNE 02:14:18 10° E night (unlit)
31 Jan - 03:44:50 10° WNW 03:48:03 48° SW 03:51:14 10° SE night (unlit)
31 Jan - 20:24:54 10° SSW 20:28:01 43° SE 20:31:09 10° ENE night (unlit)
31 Jan - 22:01:41 10° W 22:04:37 29° NNW 22:07:33 10° NE night (unlit)
31 Jan - 23:39:54 10° NW 23:41:55 15° N 23:43:54 10° NNE night (unlit)
01 Feb - 01:16:45 10° NW 01:19:19 21° NNE 01:21:54 10° ENE night (unlit)
01 Feb - 02:52:53 10° NW 02:56:12 89° NE 02:59:30 10° SE night (unlit)
01 Feb - 04:31:25 10° WSW 04:32:17 11° SW 04:33:00 10° SW night (unlit)
01 Feb - 19:33:37 10° S 19:36:14 23° SE 19:38:55 10° E visible
01 Feb - 21:09:26 10° WSW 21:12:36 44° NNW 21:15:46 10° NE night (unlit)
01 Feb - 22:47:32 10° NW 22:49:43 16° N 22:51:55 10° NNE night (unlit)
02 Feb - 00:24:55 10° NNW 00:27:10 17° N 00:29:27 10° NE night (unlit)
02 Feb - 02:01:02 10° NW 02:04:15 50° NNE 02:07:29 10° ESE night (unlit)
02 Feb - 03:38:03 10° W 03:40:34 20° SW 03:43:02 10° S night (unlit)
02 Feb - 18:43:08 10° SSE 18:44:30 12° SE 18:45:57 10° ESE visible
02 Feb - 20:17:21 10° WSW 20:20:37 77° NW 20:23:55 10° NE visible
02 Feb - 21:55:03 10° WNW 21:57:34 19° NNW 22:00:02 10° NNE night (unlit)
02 Feb - 23:32:57 10° NNW 23:34:58 15° N 23:37:00 10° NE night (unlit)
03 Feb - 01:09:13 10° NW 01:12:13 31° NNE 01:15:15 10° E night (unlit)
03 Feb - 02:45:41 10° WNW 02:48:46 37° SW 02:51:51 10° SSE night (unlit)
03 Feb - 19:25:30 10° SW 19:28:42 56° SE 19:31:56 10° ENE visible
03 Feb - 21:02:35 10° W 21:05:24 25° NNW 21:08:12 10° NE night (unlit)
03 Feb - 22:40:47 10° NW 22:42:45 15° N 22:44:42 10° NE night (unlit)
04 Feb - 00:17:25 10° NW 00:20:06 23° NNE 00:22:49 10° ENE night (unlit)
04 Feb - 01:53:36 10° WNW 01:56:54 72° SW 02:00:11 10° SE night (unlit)
04 Feb - 18:33:59 10° SSW 18:36:50 29° SE 18:39:45 10° ENE visible
04 Feb - 20:10:13 10° W 20:13:17 36° NNW 20:16:23 10° NE visible
04 Feb - 21:48:24 10° NW 21:50:29 16° N 21:52:34 10° NNE night (unlit)
04 Feb - 23:25:33 10° NNW 23:27:55 18° NNE 23:30:18 10° ENE night (unlit)
05 Feb - 01:01:39 10° NW 01:04:56 62° NNE 01:08:12 10° ESE night (unlit)
05 Feb - 02:39:01 10° W 02:41:08 16° SW 02:43:10 10° S night (unlit)
05 Feb - 17:43:00 10° S 17:45:01 16° SE 17:47:06 10° E visible
05 Feb - 19:17:59 10° WSW 19:21:13 61° NNW 19:24:29 10° NE visible
05 Feb - 20:55:52 10° WNW 20:58:14 18° NNW 21:00:35 10° NNE night (unlit)
05 Feb - 22:33:35 10° NNW 22:35:40 16° N 22:37:46 10° NE night (unlit)
06 Feb - 00:09:45 10° NW 00:12:51 37° NNE 00:15:58 10° E night (unlit)
06 Feb - 01:46:23 10° WNW 01:49:18 29° SW 01:52:11 10° SSE night (unlit)
06 Feb - 18:25:58 10° SW 18:29:12 73° SE 18:32:29 10° ENE visible
06 Feb - 20:03:19 10° WNW 20:06:00 23° NNW 20:08:41 10° NE visible
06 Feb - 21:41:25 10° NW 21:43:22 15° N 21:45:20 10° NE night (unlit)
06 Feb - 23:17:53 10° NW 23:20:42 25° NNE 23:23:32 10° E night (unlit)
07 Feb - 00:54:09 10° WNW 00:57:24 55° SW 01:00:37 10° SE night (unlit)
07 Feb - 17:34:14 10° SSW 17:37:15 37° SE 17:40:20 10° ENE daylight
07 Feb - 19:10:49 10° W 19:13:48 31° NNW 19:16:47 10° NE visible
07 Feb - 20:49:02 10° NW 20:51:03 15° N 20:53:03 10° NNE night (unlit)
07 Feb - 22:25:59 10° NNW 22:28:28 19° NNE 22:30:58 10° ENE night (unlit)
